Terminal Aerodrome Forecast
Issued by NWS Louisville, KY

Home | Current Version | Previous Version | Text Only | Print | Product List | Glossary On
Versions: 1 2 3 4 5 6 7 8 9 10 11 12 13 14 15 16 17 18 19 20 21 22
000
FTUS43 KLMK 011700
TAFBWG
TAF
KBWG 011723Z 0118/0218 22013G22KT P6SM VCSH BKN050
     FM020000 19006KT P6SM SCT200
     FM021400 23009KT P6SM VCSH BKN035=

USA.gov is the U.S. government's official web portal to all federal, state and local government web resources and services.